South Lake Tahoe, CA

11:41 PM PDT on June 26, 2017 (GMT -0700)
Lake Tahoe

Weather History for KTVL - October, 2012

Change the Weather History Date:

Wednesday, October 24, 2012

  Actual Average Record
Temperature  
Mean Temperature 33 °F 43 °F  
Max Temperature 37 °F 60 °F 72 °F (1959)
Min Temperature 28 °F 27 °F 15 °F (1975)
Degree Days  
Heating Degree Days 32 22  
Month to date heating degree days 408 446  
Since 1 July heating degree days 827 1072  
Cooling Degree Days 0 0  
Month to date cooling degree days 0 0  
Year to date cooling degree days 30 31  
Moisture  
Dew Point 26 °F    
Average Humidity 72    
Maximum Humidity 85    
Minimum Humidity 59    
Precipitation  
Precipitation 0.07 in - 3.74 in (2010)
Month to date precipitation 0.81  
Year to date precipitation 11.87  
Sea Level Pressure  
Sea Level Pressure 30.03 in    
Wind  
Wind Speed 8 mph (South)    
Max Wind Speed 21 mph    
Max Gust Speed 31 mph    
Visibility 5 miles    
Events Fog , Snow    
T = Trace of Precipitation, MM = Missing Value Source: NWS Daily Summary

Daily Weather History Graph

Daily Weather History Graph

Search for Another Location

Airport or City:

Trip Planner

Search our weather history database for the weather conditions in past years. The results will help you decide how hot, cold, wet, or windy it might be!

Date:

Astronomy

Oct. 24, 2012 Rise Set
Actual Time 7:19 AM PDT 6:08 PM PDT
Civil Twilight 6:51 AM PDT 6:35 PM PDT
Nautical Twilight 6:20 AM PDT 7:06 PM PDT
Astronomical Twilight 5:49 AM PDT 7:37 PM PDT
Moon 3:24 PM PDT (10/24) 2:22 AM PDT (10/24)
Length of Visible Light 11h 43m
Length of Day
10h 49m
Waxing Gibbous, 77% of the Moon is Illuminated
Oct 24
Waxing Gibbous
Oct 29
Full
Nov 6
Last Quarter
Nov 13
New
Nov 20
First Quarter

Hourly Weather History & Observations

Time (PDT) Temp. Windchill Dew Point Humidity Pressure Visibility Wind Dir Wind Speed Gust Speed Precip Events Conditions
12:53 AM 30.9 °F 25.2 °F 21.0 °F 67% 29.96 in 10.0 mi SSE 5.8 mph - N/A   Scattered Clouds
1:53 AM 30.9 °F 25.2 °F 19.9 °F 64% 29.96 in 10.0 mi SSE 5.8 mph - N/A   Mostly Cloudy
2:53 AM 30.0 °F 21.1 °F 21.9 °F 72% 29.96 in 9.0 mi SSE 10.4 mph - N/A   Overcast
3:53 AM 30.0 °F 22.4 °F 21.0 °F 69% 29.94 in 10.0 mi SSE 8.1 mph - N/A   Overcast
4:12 AM 30.2 °F 21.3 °F 21.2 °F 69% 29.94 in 4.0 mi SSW 10.4 mph 24.2 mph 0.00 in Snow Light Snow
4:21 AM 30.2 °F 20.2 °F 23.0 °F 75% 29.96 in 2.0 mi SSW 12.7 mph 17.3 mph 0.00 in Snow Light Snow
4:39 AM 28.4 °F 19.1 °F 24.8 °F 86% 29.96 in 1.0 mi South 10.4 mph - 0.00 in Snow Light Snow
4:46 AM 28.4 °F 19.7 °F 24.8 °F 86% 29.96 in 0.8 mi South 9.2 mph - 0.00 in Snow Light Snow
4:53 AM 28.0 °F 21.7 °F 26.1 °F 92% 29.96 in 1.2 mi South 5.8 mph - 0.00 in Snow Light Snow
5:04 AM 28.4 °F 20.4 °F 26.6 °F 93% 29.95 in 1.2 mi South 8.1 mph - 0.00 in Snow Light Snow
5:28 AM 28.4 °F 22.2 °F 24.8 °F 86% 29.95 in 2.5 mi SSW 5.8 mph - 0.01 in Snow Light Snow
5:36 AM 28.4 °F 24.6 °F 24.8 °F 86% 29.96 in 4.0 mi SSW 3.5 mph - 0.01 in Snow Light Snow
5:53 AM 28.9 °F 22.8 °F 24.1 °F 82% 29.96 in 3.0 mi South 5.8 mph - 0.01 in Snow Light Snow
6:16 AM 30.2 °F 23.4 °F 24.8 °F 80% 29.96 in 5.0 mi Variable 6.9 mph - 0.00 in Snow Light Snow
6:25 AM 30.2 °F 21.3 °F 24.8 °F 80% 29.97 in 3.0 mi SSW 10.4 mph 20.7 mph 0.01 in Snow Light Snow
6:31 AM 30.2 °F 20.8 °F 24.8 °F 80% 29.97 in 5.0 mi SSW 11.5 mph 21.9 mph 0.01 in Snow Light Snow
6:53 AM 30.9 °F 22.8 °F 24.1 °F 76% 29.96 in 10.0 mi South 9.2 mph 18.4 mph 0.01 in   Overcast
7:02 AM 30.2 °F 21.3 °F 24.8 °F 80% 29.97 in 1.5 mi South 10.4 mph - 0.00 in Snow Light Snow
7:16 AM 28.4 °F 22.2 °F 24.8 °F 86% 29.97 in 3.0 mi South 5.8 mph - 0.00 in Snow Light Snow
7:25 AM 30.2 °F 21.9 °F 24.8 °F 80% 29.97 in 5.0 mi South 9.2 mph - 0.00 in Snow Light Snow
7:44 AM 30.2 °F 20.8 °F 24.8 °F 80% 29.97 in 7.0 mi SSW 11.5 mph 20.7 mph 0.00 in   Overcast
7:53 AM 30.9 °F 22.2 °F 24.1 °F 76% 29.99 in 9.0 mi South 10.4 mph 17.3 mph 0.00 in Snow Light Snow
8:53 AM 32.0 °F 23.6 °F 25.0 °F 75% 30.00 in 7.0 mi South 10.4 mph - 0.00 in Snow Light Snow
9:05 AM 30.2 °F 20.8 °F 26.6 °F 86% 30.00 in 3.0 mi South 11.5 mph - 0.01 in Snow Light Snow
9:35 AM 30.2 °F 21.3 °F 26.6 °F 86% 30.01 in 2.5 mi South 10.4 mph - 0.01 in Snow Light Snow
9:42 AM 30.2 °F 21.3 °F 26.6 °F 86% 30.01 in 0.8 mi South 10.4 mph - 0.01 in Snow Light Snow
9:53 AM 30.9 °F 25.2 °F 27.0 °F 85% 30.04 in 1.5 mi South 5.8 mph - 0.01 in Snow Light Snow
10:00 AM 30.2 °F 23.4 °F 26.6 °F 86% 30.02 in 3.0 mi South 6.9 mph - 0.00 in Snow Light Snow
10:10 AM 30.2 °F 21.9 °F 28.4 °F 93% 30.02 in 1.8 mi South 9.2 mph - 0.00 in Snow Light Snow
10:23 AM 32.0 °F 24.2 °F 28.4 °F 87% 30.02 in 1.8 mi South 9.2 mph - 0.00 in Snow Light Snow
10:31 AM 32.0 °F 23.0 °F 26.6 °F 80% 30.03 in 2.0 mi South 11.5 mph - 0.00 in Snow Light Snow
10:37 AM 32.0 °F 24.8 °F 26.6 °F 80% 30.03 in 1.5 mi South 8.1 mph - 0.00 in Snow Light Snow
10:53 AM 32.0 °F 26.4 °F 28.0 °F 85% 30.04 in 1.2 mi South 5.8 mph - 0.01 in Snow Light Snow
11:11 AM 32.0 °F 21.2 °F 28.4 °F 87% 30.04 in 0.5 mi South 16.1 mph 23.0 mph 0.00 in Fog , Snow Light Snow
11:17 AM 30.2 °F 21.9 °F 28.4 °F 93% 30.04 in 0.2 mi South 9.2 mph 23.0 mph 0.00 in Fog , Snow Snow
11:26 AM 30.2 °F 21.9 °F 28.4 °F 93% 30.04 in 0.5 mi South 9.2 mph - 0.00 in Fog , Snow Light Snow
11:29 AM 32.0 °F 23.0 °F 28.4 °F 87% 30.04 in 1.0 mi SSW 11.5 mph 23.0 mph 0.00 in Snow Light Snow
11:33 AM 33.8 °F 22.2 °F 26.6 °F 75% 30.04 in 3.0 mi South 20.7 mph 28.8 mph 0.00 in Snow Light Snow
11:42 AM 33.8 °F 25.3 °F 26.6 °F 75% 30.05 in 7.0 mi SSW 11.5 mph 28.8 mph 0.00 in   Overcast
11:53 AM 35.1 °F 25.9 °F 23.0 °F 61% 30.04 in 10.0 mi SSW 13.8 mph 29.9 mph 0.00 in   Mostly Cloudy
12:26 PM 35.6 °F 29.9 °F 24.8 °F 65% 30.05 in 4.0 mi Variable 6.9 mph 17.3 mph 0.01 in Snow Light Snow
12:39 PM 35.6 °F - 26.6 °F 70% 30.04 in 5.0 mi Calm Calm - 0.01 in Snow Light Snow
12:48 PM 35.6 °F - 26.6 °F 70% 30.05 in 9.0 mi Calm Calm - 0.01 in   Overcast
12:53 PM 36.0 °F 31.1 °F 27.0 °F 70% 30.04 in 10.0 mi Variable 5.8 mph - 0.01 in   Overcast
1:15 PM 35.6 °F 28.6 °F 26.6 °F 70% 30.04 in 4.0 mi SSW 9.2 mph - 0.00 in Snow Light Snow
1:22 PM 35.6 °F 27.1 °F 26.6 °F 70% 30.04 in 5.0 mi SW 12.7 mph 19.6 mph 0.00 in Snow Light Snow
1:25 PM 35.6 °F 29.9 °F 26.6 °F 70% 30.04 in 2.5 mi Variable 6.9 mph 19.6 mph 0.00 in Snow Light Snow
1:33 PM 35.6 °F 29.2 °F 26.6 °F 70% 30.04 in 3.0 mi South 8.1 mph - 0.00 in Snow Light Snow
1:41 PM 35.6 °F 32.8 °F 26.6 °F 70% 30.04 in 9.0 mi Variable 3.5 mph - 0.00 in   Overcast
1:50 PM 35.6 °F 27.5 °F 26.6 °F 70% 30.04 in 10.0 mi South 11.5 mph - 0.00 in   Overcast
2:53 PM 35.1 °F 28.6 °F 24.1 °F 64% 30.05 in 10.0 mi SSW 8.1 mph 21.9 mph 0.00 in   Mostly Cloudy
3:14 PM 35.6 °F 28.0 °F 28.4 °F 75% 30.06 in 2.0 mi South 10.4 mph 17.3 mph 0.00 in Snow Light Snow
3:18 PM 33.8 °F 25.8 °F 28.4 °F 81% 30.06 in 0.8 mi South 10.4 mph - 0.00 in Snow Light Snow
3:33 PM 32.0 °F 27.5 °F 30.2 °F 93% 30.07 in 0.5 mi SSE 4.6 mph - 0.01 in Fog , Snow Light Snow
3:51 PM 33.8 °F 25.3 °F 30.2 °F 87% 30.08 in 1.0 mi South 11.5 mph 16.1 mph 0.01 in Snow Light Snow
3:52 PM 33.1 °F 24.9 °F 28.9 °F 85% 30.09 in 1.0 mi South 10.4 mph 16.1 mph 0.01 in Snow Light Snow
4:01 PM 33.8 °F 25.3 °F 28.4 °F 81% 30.08 in 3.0 mi South 11.5 mph 21.9 mph 0.00 in Snow Light Snow
4:06 PM 35.6 °F 27.1 °F 26.6 °F 70% 30.08 in 9.0 mi South 12.7 mph 18.4 mph 0.00 in   Overcast
4:53 PM 35.1 °F 29.3 °F 27.0 °F 72% 30.09 in 10.0 mi Variable 6.9 mph 20.7 mph 0.00 in   Overcast
5:28 PM 33.8 °F 27.7 °F 28.4 °F 81% 30.09 in 1.8 mi South 6.9 mph - 0.00 in Snow Light Snow
5:53 PM 32.0 °F 25.6 °F 28.0 °F 85% 30.10 in 1.2 mi SSE 6.9 mph - 0.00 in Snow Light Snow
6:17 PM 32.0 °F - 28.4 °F 87% 30.10 in 1.2 mi Calm Calm - 0.01 in Snow Light Snow
6:29 PM 32.0 °F 28.7 °F 28.4 °F 87% 30.11 in 2.0 mi East 3.5 mph - 0.01 in Snow Light Snow
6:37 PM 33.8 °F 27.0 °F 28.4 °F 81% 30.11 in 5.0 mi SSE 8.1 mph - 0.01 in Snow Light Snow
6:53 PM 34.0 °F 25.5 °F 26.1 °F 73% 30.12 in 10.0 mi South 11.5 mph - 0.01 in   Overcast
7:53 PM 34.0 °F 27.2 °F 27.0 °F 75% 30.14 in 10.0 mi South 8.1 mph - 0.00 in   Overcast
8:49 PM 33.8 °F 27.0 °F 26.6 °F 75% 30.14 in 10.0 mi South 8.1 mph - N/A   Overcast
8:53 PM 34.0 °F 27.2 °F 26.1 °F 73% 30.14 in 10.0 mi SSE 8.1 mph - N/A   Overcast
9:53 PM 33.1 °F 24.9 °F 26.1 °F 75% 30.15 in 10.0 mi South 10.4 mph - N/A   Scattered Clouds
10:53 PM 33.1 °F 28.7 °F 26.1 °F 75% 30.17 in 10.0 mi SSW 4.6 mph - N/A   Partly Cloudy
11:53 PM 32.0 °F 25.6 °F 25.0 °F 75% 30.17 in 10.0 mi Variable 6.9 mph - N/A   Overcast